[[{"header":{"parameterUnit":"m.s-1","parameterCategory":1,"la1":30.2991,"la2":30.254,"lo1":-89.0895,"lo2":-89.0444,"dy":0.0017,"dx":0.0017,"nx":28,"ny":28,"refTime":"2025-01-17T03:00:00:Z","depth":0,"parameterNumber":2,"parameterNumberName":"U-component_of_WINDS"},"data":[0,0,0,0,0,0,0,0,0,0,0,0,0,0,0,0,0,0,0,0,0,0,0,0,0,0,0,0,0,0,0,0,0,0,0,0,0,0,0,0,0,0,0,0,0,0,0,0,0,0,0,0,0,0,0,0,0,0,2.7434,2.7435,0,2.7493,2.7493,2.7494,2.7486,2.7485,2.7484,2.7483,2.7542,2.7545,2.7547,0,0,0,0,0,0,0,0,0,0,0,0,0,2.7315,2.7317,2.7434,2.7435,2.7435,2.7493,2.7494,2.7494,2.7486,2.7485,2.7484,2.7483,2.7541,2.7544,2.7547,0,0,0,0,0,0,0,0,0,0,0,0,0,2.7369,2.7318,2.7434,2.7438,2.7439,2.7493,2.7494,2.7495,2.7486,2.7485,2.7483,2.7482,2.754,2.7544,2.7548,2.76,0,0,2.7559,2.7561,0,0,0,0,0,0,0,0,2.7366,2.7374,2.7437,2.7438,2.7439,2.7481,2.7473,2.753,2.7487,2.7468,2.7483,2.7481,2.7523,2.7528,2.7542,2.7603,2.7605,2.7559,2.7562,2.7563,2.7564,0,0,0,0,0,0,0,2.7362,2.7371,2.7457,2.7438,2.7439,2.7437,2.7444,2.7484,2.7503,2.747,2.7469,2.7477,2.7523,2.7539,2.7543,2.7606,2.7559,2.7563,2.7565,2.7566,2.7715,2.7716,0,0,0,0,0,0,2.7358,2.7368,2.7455,2.7459,2.7398,2.7441,2.7448,2.7469,2.7503,2.7506,2.7478,2.7476,2.7533,2.7539,2.7545,2.7611,2.7563,2.7567,2.7569,2.7713,2.7715,2.7717,0,0,0,0,0,0,2.7355,2.7365,2.7453,2.7413,2.7424,2.7444,2.7468,2.7471,2.7486,2.7509,2.7512,2.749,2.7532,2.754,2.7587,2.7612,2.7568,2.7572,2.7711,2.7714,2.7716,2.774,0,0,0,0,0,0,2.7352,2.7365,2.7384,2.7414,2.7427,2.7494,2.747,2.7473,2.7493,2.7491,2.7521,2.7524,2.7531,2.7582,2.7591,2.7617,2.7575,2.7709,2.7712,2.7715,2.7737,2.7743,2.7749,0,0,0,0,0,2.7347,2.7388,2.7386,2.7396,2.7452,2.7495,2.7502,2.751,2.7495,2.7515,2.753,2.7524,2.7608,2.7586,2.7597,2.7624,2.7707,2.7711,2.7715,2.7735,2.7742,2.7748,0,0,0,0,0,0,2.736,2.7392,2.7389,2.7441,2.7466,2.7494,2.752,2.7517,2.7546,2.7543,2.7551,2.7558,2.7606,2.7619,2.7595,2.7678,2.7656,2.7662,2.7667,2.7674,2.768,2.7676,2.7578,0,0,0,0,0,2.7369,2.7402,2.7428,2.7471,2.7483,2.7499,2.7518,2.7522,2.7548,2.7558,2.7576,2.7601,2.7633,2.7654,2.7685,2.7739,2.7746,2.7763,2.7769,2.7773,2.7779,2.781,2.7819,2.773,2.773,2.773,0,0,2.7388,2.7409,2.7429,2.7474,2.7493,2.7527,2.7508,2.7544,2.757,2.7563,2.7609,2.7623,2.7652,2.7703,2.7726,2.7716,2.7805,2.7778,2.7782,2.7785,2.7815,2.7823,2.7831,2.7732,2.7732,2.7731,0,0,2.744,2.7458,2.7497,2.7518,2.7548,2.7559,2.7568,2.7597,2.7606,2.7653,2.7649,2.768,2.7734,2.7756,2.7773,2.7835,2.7831,2.7845,2.7874,2.7905,2.7912,2.7918,2.7942,2.795,2.785,2.785,2.785,0,2.7459,2.751,2.7517,2.7555,2.7575,2.7572,2.7612,2.7631,2.7669,2.7684,2.7672,2.7742,2.7761,2.7818,2.7833,2.7847,2.7859,2.7842,2.791,2.7917,2.7923,2.7945,2.7954,2.7852,2.7851,2.7851,2.7851,0,2.7533,2.7569,2.7597,2.7635,2.7658,2.7697,2.7711,2.7733,2.7735,2.7748,2.7796,2.7818,2.7855,2.7868,2.787,2.7926,2.7919,2.7908,2.7887,2.7933,2.7954,2.7963,2.7854,2.7853,2.7853,2.7852,0,0,2.7594,2.7638,2.7648,2.7666,2.77,2.7728,2.7766,2.7803,2.7823,2.7849,2.7883,2.793,2.7922,2.7942,2.7946,2.7973,2.8023,2.7959,2.796,2.7972,2.8088,2.8096,2.8106,2.802,2.8021,2.8022,2.8086,0,2.7651,2.772,2.7728,2.779,2.7824,2.7822,2.7856,2.788,2.7893,2.7923,2.7937,2.7972,2.7956,2.7969,2.7995,2.8011,2.8046,2.8006,2.8052,2.8053,2.8046,2.8117,2.8126,2.8185,2.8094,2.8096,2.8097,0,2.7725,2.7756,2.7821,2.7852,2.7866,2.7897,2.7932,2.7961,2.7989,2.7996,2.802,2.8021,2.8062,2.8038,2.8095,2.8068,2.8087,2.8097,2.81,2.8105,2.8078,2.8126,2.8204,2.8213,2.8109,2.8108,2.8107,0,2.7766,2.7823,2.787,2.7885,2.7922,2.7943,2.796,2.7986,2.8008,2.8039,2.8053,2.8087,2.8107,2.8133,2.8144,2.8125,2.8201,2.8178,2.8209,2.8209,2.8226,2.8225,2.8309,2.8236,2.8236,2.8236,2.8236,0,2.7828,2.7869,2.7889,2.7918,2.7963,2.7973,2.8018,2.8033,2.8057,2.8089,2.8089,2.8119,2.8131,2.8164,2.8172,2.8219,2.8227,2.8235,2.8237,2.8236,2.8235,2.8249,2.8246,2.8238,2.8238,2.8237,2.8237,0,2.7881,2.7896,2.7948,2.7978,2.7987,2.802,2.8046,2.8075,2.8087,2.8128,2.8139,2.8158,2.8197,2.821,2.8256,2.8262,2.8317,2.8315,2.8308,2.8309,2.834,2.8338,2.8438,2.8452,2.8368,2.8369,2.8369,0,2.7921,2.7952,2.7987,2.8009,2.8027,2.8062,2.8085,2.8095,2.8119,2.8155,2.8179,2.8217,2.8249,2.831,2.8329,2.8364,2.8364,2.8397,2.8369,2.8368,2.8366,2.8365,2.8369,2.8402,2.8403,2.8403,2.8404,0,2.7991,2.7997,2.803,2.8066,2.8094,2.8122,2.815,2.8168,2.8183,2.821,2.825,2.8274,2.8322,2.8361,2.8397,2.8414,2.8412,2.8412,2.8422,2.8422,2.8417,2.8422,2.8323,2.841,2.841,2.8409,2.8409,2.8409,2.8039,2.8068,2.8098,2.8135,2.8157,2.8184,2.8213,2.8229,2.8263,2.8303,2.8308,2.8351,2.8379,2.8429,2.8448,2.8482,2.8473,2.8486,2.849,2.8493,2.8497,2.8411,2.8488,2.8488,2.8488,2.8488,2.8488,0,2.811,2.813,2.8164,2.8204,2.8233,2.8229,2.826,2.8285,2.8324,2.8351,2.8382,2.8429,2.8466,2.8488,2.8526,2.8549,2.855,2.8559,2.8558,2.8562,2.8501,2.849,2.8559,2.8559,2.8559,2.8558,2.8558,2.8558,2.8151,2.82,2.821,2.827,2.8288,2.8331,2.835,2.8375,2.8397,2.8449,2.848,2.8495,2.852,2.856,2.8595,2.8601,2.8615,2.8626,2.8631,2.8574,2.8566,2.856,2.8549,2.8629,2.8629,2.8689,2.869,2.869]},{"header":{"parameterUnit":"m.s-1","parameterCategory":1,"la1":30.2991,"la2":30.254,"lo1":-89.0895,"lo2":-89.0444,"dy":0.0017,"dx":0.0017,"nx":28,"ny":28,"refTime":"2025-01-17T03:00:00:Z","depth":0,"parameterNumber":3,"parameterNumberName":"V-component_of_WINDS"},"data":[0,0,0,0,0,0,0,0,0,0,0,0,0,0,0,0,0,0,0,0,0,0,0,0,0,0,0,0,0,0,0,0,0,0,0,0,0,0,0,0,0,0,0,0,0,0,0,0,0,0,0,0,0,0,0,0,0,0,-2.0035,-2.0034,0,-1.9911,-1.9909,-1.9908,-1.9863,-1.9863,-1.9864,-1.9864,-1.9731,-1.9727,-1.9723,0,0,0,0,0,0,0,0,0,0,0,0,0,-2.0229,-2.0225,-2.0035,-2.0034,-2.0032,-1.9911,-1.9909,-1.9908,-1.9863,-1.9863,-1.9864,-1.9864,-1.9732,-1.9728,-1.9723,0,0,0,0,0,0,0,0,0,0,0,0,0,-2.0129,-2.0224,-2.0036,-1.9995,-1.999,-1.9912,-1.9909,-1.9907,-1.9863,-1.9863,-1.9864,-1.9865,-1.9734,-1.9728,-1.9722,-1.9672,0,0,-1.9704,-1.9701,0,0,0,0,0,0,0,0,-2.0134,-2.0121,-2.0003,-1.9998,-1.9992,-1.9903,-1.9929,-1.9828,-1.9862,-1.9911,-1.9864,-1.9865,-1.9787,-1.9777,-1.9752,-1.9666,-1.966,-1.9703,-1.97,-1.9697,-1.9696,0,0,0,0,0,0,0,-2.0141,-2.0126,-1.9986,-2.0001,-1.9995,-1.9982,-1.9968,-1.9909,-1.9847,-1.9907,-1.9903,-1.9889,-1.9785,-1.9758,-1.9749,-1.9658,-1.9704,-1.9698,-1.9695,-1.9692,-1.9525,-1.9524,0,0,0,0,0,0,-2.0156,-2.0133,-1.999,-1.9982,-2.0067,-1.9978,-1.9963,-1.9931,-1.9847,-1.9835,-1.9889,-1.9888,-1.9768,-1.9756,-1.9744,-1.9679,-1.9697,-1.9692,-1.9688,-1.9526,-1.9525,-1.9524,0,0,0,0,0,0,-2.016,-2.0143,-1.9995,-2.0056,-2.0037,-1.9974,-1.9939,-1.9928,-1.9902,-1.9834,-1.9822,-1.9874,-1.9768,-1.9752,-1.9691,-1.9674,-1.9689,-1.9684,-1.9527,-1.9525,-1.9524,-1.9551,0,0,0,0,0,0,-2.0166,-2.0145,-2.0127,-2.0056,-2.0034,-1.9945,-1.9938,-1.9925,-1.9892,-1.9889,-1.9816,-1.9805,-1.9767,-1.97,-1.9685,-1.9666,-1.9679,-1.9528,-1.9526,-1.9524,-1.9551,-1.955,-1.955,0,0,0,0,0,-2.0173,-2.0138,-2.0126,-2.0109,-2.0009,-1.9945,-1.9931,-1.989,-1.9891,-1.9871,-1.9828,-1.9807,-1.9679,-1.9694,-1.9677,-1.9656,-1.9529,-1.9527,-1.9525,-1.9551,-1.955,-1.955,0,0,0,0,0,0,-2.0205,-2.0128,-2.0114,-2.0055,-2.0007,-1.9937,-1.9911,-1.9891,-1.984,-1.9839,-1.9789,-1.9773,-1.9715,-1.9679,-1.9698,-1.9603,-1.9602,-1.9597,-1.9628,-1.9627,-1.9627,-1.9636,-1.9674,0,0,0,0,0,-2.0207,-2.0162,-2.0096,-2.0051,-2.0028,-1.9974,-1.9944,-1.9917,-1.9864,-1.9843,-1.9795,-1.9743,-1.9691,-1.9657,-1.9605,-1.9546,-1.9529,-1.9523,-1.9523,-1.9523,-1.9518,-1.9483,-1.948,-1.9517,-1.9517,-1.9517,0,0,-2.0207,-2.0159,-2.0133,-2.0056,-2.0016,-1.9969,-1.9957,-1.9908,-1.9872,-1.9834,-1.9774,-1.9737,-1.9676,-1.9615,-1.9586,-1.9584,-1.9504,-1.952,-1.9521,-1.9516,-1.9481,-1.9478,-1.9475,-1.9516,-1.9516,-1.9516,0,0,-2.0183,-2.0144,-2.0101,-2.0062,-2.0001,-1.9966,-1.9956,-1.9889,-1.9864,-1.9803,-1.9774,-1.973,-1.9642,-1.9599,-1.9566,-1.9528,-1.9507,-1.9513,-1.9509,-1.9476,-1.9473,-1.947,-1.9456,-1.9452,-1.9509,-1.9509,-1.9509,0,-2.0191,-2.0122,-2.0082,-2.0035,-2.0001,-1.9968,-1.9924,-1.9886,-1.9812,-1.9788,-1.9788,-1.9676,-1.9632,-1.9561,-1.9553,-1.9527,-1.9513,-1.952,-1.9477,-1.9474,-1.9471,-1.9456,-1.9451,-1.951,-1.951,-1.951,-1.9509,0,-2.0133,-2.0086,-2.0059,-1.999,-1.9953,-1.9908,-1.986,-1.9827,-1.9804,-1.9768,-1.9706,-1.9653,-1.959,-1.9572,-1.9547,-1.9497,-1.9497,-1.9488,-1.9485,-1.9469,-1.9454,-1.9449,-1.9511,-1.9511,-1.9511,-1.951,0,0,-2.0125,-2.0036,-2.0027,-1.9995,-1.9927,-1.9888,-1.9842,-1.9782,-1.9755,-1.9705,-1.9663,-1.959,-1.9581,-1.9543,-1.9514,-1.9485,-1.9458,-1.9479,-1.9477,-1.9476,-1.9398,-1.9405,-1.9399,-1.9444,-1.9443,-1.9442,-1.9403,0,-2.0092,-2.0009,-1.9972,-1.9905,-1.986,-1.9828,-1.9787,-1.974,-1.9705,-1.9661,-1.9622,-1.9571,-1.9564,-1.9541,-1.9511,-1.9468,-1.9441,-1.947,-1.9403,-1.9401,-1.9418,-1.9392,-1.9398,-1.9363,-1.9397,-1.9396,-1.9395,0,-2.0042,-1.9994,-1.9923,-1.986,-1.984,-1.9804,-1.9747,-1.9705,-1.9651,-1.9628,-1.9587,-1.956,-1.9508,-1.9511,-1.9438,-1.9458,-1.9429,-1.9404,-1.9401,-1.9392,-1.9396,-1.938,-1.9351,-1.9346,-1.9386,-1.9387,-1.9388,0,-2.0042,-1.9959,-1.9906,-1.988,-1.9806,-1.9782,-1.9749,-1.9696,-1.9663,-1.9612,-1.959,-1.9533,-1.9502,-1.9458,-1.9416,-1.9422,-1.9346,-1.9346,-1.9324,-1.9325,-1.9308,-1.9309,-1.9273,-1.9292,-1.9292,-1.9292,-1.9292,0,-2.0008,-1.9965,-1.9905,-1.9872,-1.9823,-1.9781,-1.9733,-1.9698,-1.9652,-1.961,-1.9579,-1.954,-1.9487,-1.9441,-1.9407,-1.9352,-1.9338,-1.9316,-1.9308,-1.9318,-1.9321,-1.9297,-1.9298,-1.929,-1.9291,-1.9291,-1.9291,0,-1.9998,-1.9957,-1.9897,-1.9833,-1.9816,-1.9782,-1.9726,-1.9692,-1.9658,-1.9606,-1.9591,-1.9535,-1.948,-1.9434,-1.936,-1.9338,-1.9279,-1.927,-1.9298,-1.9293,-1.9274,-1.9276,-1.9219,-1.9209,-1.9237,-1.9236,-1.9236,0,-1.9979,-1.9945,-1.9879,-1.985,-1.9819,-1.9772,-1.9739,-1.9696,-1.9662,-1.9599,-1.9572,-1.9515,-1.9467,-1.938,-1.9332,-1.9275,-1.9263,-1.9247,-1.9254,-1.9266,-1.9261,-1.9263,-1.9259,-1.9246,-1.9246,-1.9246,-1.9246,0,-1.9948,-1.9929,-1.9883,-1.983,-1.9792,-1.9747,-1.9702,-1.968,-1.9629,-1.9592,-1.9536,-1.9499,-1.9426,-1.9369,-1.9308,-1.9272,-1.925,-1.9245,-1.9236,-1.9246,-1.9263,-1.9253,-1.9295,-1.9246,-1.9246,-1.9246,-1.9246,-1.9246,-1.9931,-1.99,-1.9849,-1.9799,-1.9761,-1.9719,-1.9685,-1.9646,-1.96,-1.9538,-1.9515,-1.9458,-1.9404,-1.932,-1.9285,-1.9239,-1.9236,-1.9224,-1.922,-1.9218,-1.9219,-1.9273,-1.9227,-1.9227,-1.9227,-1.9227,-1.9227,0,-1.9897,-1.9863,-1.9818,-1.9757,-1.9717,-1.9703,-1.9652,-1.9619,-1.957,-1.9523,-1.9477,-1.9412,-1.9358,-1.9306,-1.9248,-1.9221,-1.9209,-1.9207,-1.9207,-1.9199,-1.9225,-1.9238,-1.9217,-1.9217,-1.9217,-1.9217,-1.9217,-1.9217,-1.9875,-1.9822,-1.9798,-1.9725,-1.969,-1.9636,-1.9608,-1.9569,-1.9531,-1.9462,-1.9417,-1.9385,-1.9335,-1.9274,-1.9222,-1.9209,-1.9188,-1.9188,-1.9171,-1.9196,-1.9198,-1.9199,-1.921,-1.9185,-1.9185,-1.9149,-1.9149,-1.9149]}]]